Year,Month,Day,Hour,Minute,Value (Times are PST for temperature in C)
2009,08,02,07,27,15.00
2009,08,02,07,28,15.00
2009,08,02,07,29,15.00
2009,08,02,07,30,15.10
2009,08,02,07,31,15.20
2009,08,02,07,32,15.20
2009,08,02,07,33,15.30
2009,08,02,07,34,15.30
2009,08,02,07,35,15.40
2009,08,02,07,36,15.40
2009,08,02,07,37,15.40
2009,08,02,07,38,15.50
2009,08,02,07,39,15.50
2009,08,02,07,40,15.60
2009,08,02,07,41,15.70
2009,08,02,07,42,15.80
2009,08,02,07,43,15.80
2009,08,02,07,44,15.90
2009,08,02,07,45,16.00
2009,08,02,07,46,16.00
2009,08,02,07,47,16.00
2009,08,02,07,48,16.10
2009,08,02,07,49,16.10
2009,08,02,07,50,16.20
2009,08,02,07,51,16.20
2009,08,02,07,52,16.30
2009,08,02,07,53,16.30
2009,08,02,07,54,16.40
2009,08,02,07,55,16.40
2009,08,02,07,56,16.50
2009,08,02,07,57,16.50
2009,08,02,07,58,16.60
2009,08,02,07,59,16.60
2009,08,02,08,00,16.70
2009,08,02,08,01,16.70
2009,08,02,08,02,16.80
2009,08,02,08,03,16.80
2009,08,02,08,04,16.90
2009,08,02,08,05,17.00
2009,08,02,08,06,17.00
2009,08,02,08,07,17.10
2009,08,02,08,08,17.10
2009,08,02,08,09,17.20
2009,08,02,08,10,17.20
2009,08,02,08,11,17.30
2009,08,02,08,12,17.30
2009,08,02,08,13,17.30
2009,08,02,08,14,17.40
2009,08,02,08,15,17.40
2009,08,02,08,16,17.50
2009,08,02,08,17,17.50
2009,08,02,08,18,17.60
2009,08,02,08,19,17.70
2009,08,02,08,20,17.80
2009,08,02,08,21,17.90
2009,08,02,08,22,18.00
2009,08,02,08,23,18.10
2009,08,02,08,24,18.20
2009,08,02,08,25,18.40
2009,08,02,08,26,18.50
2009,08,02,08,27,18.60
2009,08,02,08,28,18.60
2009,08,02,08,29,18.70
2009,08,02,08,30,18.70
2009,08,02,08,31,18.80
2009,08,02,08,32,18.80
2009,08,02,08,33,18.90
2009,08,02,08,34,18.90
2009,08,02,08,35,19.00
2009,08,02,08,36,19.10
2009,08,02,08,37,19.20
2009,08,02,08,38,19.30
2009,08,02,08,39,19.40
2009,08,02,08,40,19.50
2009,08,02,08,41,19.60
2009,08,02,08,42,19.70
2009,08,02,08,43,19.90
2009,08,02,08,44,20.00
2009,08,02,08,45,20.10
2009,08,02,08,46,20.30
2009,08,02,08,47,20.30
2009,08,02,08,48,20.40
2009,08,02,08,49,20.50
2009,08,02,08,50,20.60
2009,08,02,08,51,20.50
2009,08,02,08,52,20.50
2009,08,02,08,53,20.50
2009,08,02,08,54,20.60
2009,08,02,08,55,20.60
2009,08,02,08,56,20.60
2009,08,02,08,57,20.70
2009,08,02,08,58,20.70
2009,08,02,08,59,20.70
2009,08,02,09,00,20.80
2009,08,02,09,01,20.80
2009,08,02,09,02,20.80
2009,08,02,09,03,20.80
2009,08,02,09,04,20.90
2009,08,02,09,05,20.90
2009,08,02,09,06,21.00
2009,08,02,09,07,21.10
2009,08,02,09,08,21.20
2009,08,02,09,09,21.20
2009,08,02,09,10,21.30
2009,08,02,09,11,21.30
2009,08,02,09,12,21.40
2009,08,02,09,13,21.40
2009,08,02,09,14,21.50
2009,08,02,09,15,21.60
2009,08,02,09,16,21.70
2009,08,02,09,17,21.80
2009,08,02,09,18,21.90
2009,08,02,09,19,22.00
2009,08,02,09,20,22.10
2009,08,02,09,21,22.10
2009,08,02,09,22,22.10
2009,08,02,09,23,22.20
2009,08,02,09,24,22.30
2009,08,02,09,25,22.40
2009,08,02,09,26,22.50
2009,08,02,09,27,22.60
2009,08,02,09,28,22.70
2009,08,02,09,29,22.80
2009,08,02,09,30,22.80
2009,08,02,09,31,22.80
2009,08,02,09,32,22.90
2009,08,02,09,33,22.90
2009,08,02,09,34,23.00
2009,08,02,09,35,23.00
2009,08,02,09,36,23.10
2009,08,02,09,37,23.10
2009,08,02,09,38,23.20
2009,08,02,09,39,23.20
2009,08,02,09,40,23.30
2009,08,02,09,41,23.30
2009,08,02,09,42,23.30
2009,08,02,09,43,23.30
2009,08,02,09,44,23.20
2009,08,02,09,45,23.10
2009,08,02,09,46,23.10
2009,08,02,09,47,23.10
2009,08,02,09,48,23.10
2009,08,02,09,49,23.10
2009,08,02,09,50,23.10
2009,08,02,09,51,23.20
2009,08,02,09,52,23.20
2009,08,02,09,53,23.30
2009,08,02,09,54,23.50
2009,08,02,09,55,23.60
2009,08,02,09,56,23.60
2009,08,02,09,57,23.70
2009,08,02,09,58,23.60
2009,08,02,09,59,23.60
2009,08,02,10,00,23.60
2009,08,02,10,01,23.60
2009,08,02,10,02,23.60
2009,08,02,10,03,23.50
2009,08,02,10,04,23.50
2009,08,02,10,05,23.40
2009,08,02,10,06,23.40
2009,08,02,10,07,23.40
2009,08,02,10,08,23.30
2009,08,02,10,09,23.30
2009,08,02,10,10,23.30
2009,08,02,10,11,23.20
2009,08,02,10,12,23.30
2009,08,02,10,13,23.30
2009,08,02,10,14,23.20
2009,08,02,10,15,23.20
2009,08,02,10,16,23.20
2009,08,02,10,17,23.20
2009,08,02,10,18,23.20
2009,08,02,10,19,23.20
2009,08,02,10,20,23.20
2009,08,02,10,21,23.20
2009,08,02,10,22,23.20
2009,08,02,10,23,23.10
2009,08,02,10,24,23.10
2009,08,02,10,25,23.10
2009,08,02,10,26,23.10
2009,08,02,10,27,23.10
2009,08,02,10,28,23.10
2009,08,02,10,29,23.10
2009,08,02,10,30,23.10
2009,08,02,10,31,23.10
2009,08,02,10,32,23.20
2009,08,02,10,33,23.30
2009,08,02,10,34,23.30
2009,08,02,10,35,23.40
2009,08,02,10,36,23.40
2009,08,02,10,37,23.40
2009,08,02,10,38,23.40
2009,08,02,10,39,23.50
2009,08,02,10,40,23.50
2009,08,02,10,41,23.60
2009,08,02,10,42,23.60
2009,08,02,10,43,23.70
2009,08,02,10,44,23.80
2009,08,02,10,45,23.90
2009,08,02,10,46,23.90
2009,08,02,10,47,24.00
2009,08,02,10,48,24.10
2009,08,02,10,49,24.20
2009,08,02,10,50,24.30
2009,08,02,10,51,24.30
2009,08,02,10,52,24.40
2009,08,02,10,53,24.40
2009,08,02,10,54,24.30
2009,08,02,10,55,24.30
2009,08,02,10,56,24.20
2009,08,02,10,57,24.10
2009,08,02,10,58,24.10
2009,08,02,10,59,24.00
2009,08,02,11,00,24.00
2009,08,02,11,01,23.90
2009,08,02,11,02,23.90
2009,08,02,11,03,23.90
2009,08,02,11,04,23.90
2009,08,02,11,05,23.90
2009,08,02,11,06,23.90
2009,08,02,11,07,23.90
2009,08,02,11,08,24.10
2009,08,02,11,09,24.20
2009,08,02,11,10,24.20
2009,08,02,11,11,24.20
2009,08,02,11,12,24.10
2009,08,02,11,13,24.10
2009,08,02,11,14,24.10
2009,08,02,11,15,24.10
2009,08,02,11,16,24.10
2009,08,02,11,17,24.10
2009,08,02,11,18,24.10
2009,08,02,11,19,24.20
2009,08,02,11,20,24.20
2009,08,02,11,21,24.10
2009,08,02,11,22,24.20
2009,08,02,11,23,24.20
2009,08,02,11,24,24.30
2009,08,02,11,25,24.20
2009,08,02,11,26,24.20
2009,08,02,11,27,24.20
2009,08,02,11,28,24.30
2009,08,02,11,29,24.30
2009,08,02,11,30,24.30
2009,08,02,11,31,24.30
2009,08,02,11,32,24.30
2009,08,02,11,33,24.40
2009,08,02,11,34,24.60
2009,08,02,11,35,24.70
2009,08,02,11,36,24.90
2009,08,02,11,37,24.90
2009,08,02,11,38,25.00
2009,08,02,11,39,25.10
2009,08,02,11,40,25.20
2009,08,02,11,41,25.30
2009,08,02,11,42,25.40
2009,08,02,11,43,25.50
2009,08,02,11,44,25.60
2009,08,02,11,45,25.60
2009,08,02,11,46,25.70
2009,08,02,11,47,25.60
2009,08,02,11,48,25.60
2009,08,02,11,49,25.50
2009,08,02,11,50,25.50
2009,08,02,11,51,25.40
2009,08,02,11,52,25.20
2009,08,02,11,53,25.10
2009,08,02,11,54,25.10
2009,08,02,11,55,25.20
2009,08,02,11,56,25.30
2009,08,02,11,57,25.30
2009,08,02,11,58,25.30
2009,08,02,11,59,25.30
2009,08,02,12,00,25.20
2009,08,02,12,01,25.10
2009,08,02,12,02,25.10
2009,08,02,12,03,25.10
2009,08,02,12,04,25.20
2009,08,02,12,05,25.20
2009,08,02,12,06,25.20
2009,08,02,12,07,25.20
2009,08,02,12,08,25.30
2009,08,02,12,09,25.40
2009,08,02,12,10,25.40
2009,08,02,12,11,25.50
2009,08,02,12,12,25.50
2009,08,02,12,13,25.60
2009,08,02,12,14,25.60
2009,08,02,12,15,25.70
2009,08,02,12,16,25.80
2009,08,02,12,17,25.80
2009,08,02,12,18,25.80
2009,08,02,12,19,25.80
2009,08,02,12,20,25.80
2009,08,02,12,21,25.90
2009,08,02,12,22,25.90
2009,08,02,12,23,26.00
2009,08,02,12,24,26.20
2009,08,02,12,25,26.40
2009,08,02,12,26,26.50
2009,08,02,12,27,26.70
2009,08,02,12,28,26.80
2009,08,02,12,29,26.70
2009,08,02,12,30,26.70
2009,08,02,12,31,26.70
2009,08,02,12,32,26.60
2009,08,02,12,33,26.50
2009,08,02,12,34,26.50
2009,08,02,12,35,26.50
2009,08,02,12,36,26.40
2009,08,02,12,37,26.40
2009,08,02,12,38,26.40
2009,08,02,12,39,26.40
2009,08,02,12,40,26.50
2009,08,02,12,41,26.60
2009,08,02,12,42,26.70
2009,08,02,12,43,26.70
2009,08,02,12,44,26.80
2009,08,02,12,45,26.70
2009,08,02,12,46,26.60
2009,08,02,12,47,26.50
2009,08,02,12,48,26.50
2009,08,02,12,49,26.60
2009,08,02,12,50,26.60
2009,08,02,12,51,26.60
2009,08,02,12,52,26.60
2009,08,02,12,53,26.60
2009,08,02,12,54,26.50
2009,08,02,12,55,26.50
2009,08,02,12,56,26.60
2009,08,02,12,57,26.50
2009,08,02,12,58,26.40
2009,08,02,12,59,26.40
2009,08,02,13,00,26.50
2009,08,02,13,01,26.60
2009,08,02,13,02,26.60
2009,08,02,13,03,26.70
2009,08,02,13,04,26.70
2009,08,02,13,05,26.80
2009,08,02,13,06,26.80
2009,08,02,13,07,26.80
2009,08,02,13,08,26.90
2009,08,02,13,09,26.90
2009,08,02,13,10,27.00
2009,08,02,13,11,27.10
2009,08,02,13,12,27.10
2009,08,02,13,13,27.20
2009,08,02,13,14,27.20
2009,08,02,13,15,27.10
2009,08,02,13,16,27.10
2009,08,02,13,17,27.20
2009,08,02,13,18,27.20
2009,08,02,13,19,27.20
2009,08,02,13,20,27.10
2009,08,02,13,21,27.00
2009,08,02,13,22,26.90
2009,08,02,13,23,26.90
2009,08,02,13,24,26.70
2009,08,02,13,25,26.70
2009,08,02,13,26,26.80
2009,08,02,13,27,26.80
2009,08,02,13,28,26.80
2009,08,02,13,29,26.80
2009,08,02,13,30,26.80
2009,08,02,13,31,26.90
2009,08,02,13,32,26.80
2009,08,02,13,33,26.80
2009,08,02,13,34,26.80
2009,08,02,13,35,26.80
2009,08,02,13,36,26.70
2009,08,02,13,37,26.70
2009,08,02,13,38,26.60
2009,08,02,13,39,26.60
2009,08,02,13,40,26.60
2009,08,02,13,41,26.60
2009,08,02,13,42,26.60
2009,08,02,13,43,26.70
2009,08,02,13,44,26.90
2009,08,02,13,45,26.90
2009,08,02,13,46,27.00
2009,08,02,13,47,27.00
2009,08,02,13,48,26.90
2009,08,02,13,49,26.70
2009,08,02,13,50,26.70
2009,08,02,13,51,26.70
2009,08,02,13,52,26.70
2009,08,02,13,53,26.60
2009,08,02,13,54,26.60
2009,08,02,13,55,26.70
2009,08,02,13,56,26.70
2009,08,02,13,57,26.90
2009,08,02,13,58,27.10
2009,08,02,13,59,27.20
2009,08,02,14,00,27.30
2009,08,02,14,01,27.30
2009,08,02,14,02,27.10
2009,08,02,14,03,27.10
2009,08,02,14,04,27.10
2009,08,02,14,05,27.20
2009,08,02,14,06,27.20
2009,08,02,14,07,27.20
2009,08,02,14,08,27.10
2009,08,02,14,09,27.10
2009,08,02,14,10,27.00
2009,08,02,14,11,27.10
2009,08,02,14,12,27.20
2009,08,02,14,13,27.30
2009,08,02,14,14,27.30
2009,08,02,14,15,27.40
2009,08,02,14,16,27.50
2009,08,02,14,17,27.50
2009,08,02,14,18,27.50
2009,08,02,14,19,27.50
2009,08,02,14,20,27.50
2009,08,02,14,21,27.50
2009,08,02,14,22,27.40
2009,08,02,14,23,27.40
2009,08,02,14,24,27.30
2009,08,02,14,25,27.10
2009,08,02,14,26,27.10
2009,08,02,14,27,27.20
2009,08,02,14,28,27.30
2009,08,02,14,29,27.30
2009,08,02,14,30,27.30
2009,08,02,14,31,27.20
2009,08,02,14,32,27.20
2009,08,02,14,33,27.10
2009,08,02,14,34,26.90
2009,08,02,14,35,26.80
2009,08,02,14,36,26.80
2009,08,02,14,37,26.80
2009,08,02,14,38,26.90
2009,08,02,14,39,27.00
2009,08,02,14,40,27.10
2009,08,02,14,41,27.20
2009,08,02,14,42,27.20
2009,08,02,14,43,27.30
2009,08,02,14,44,27.30
2009,08,02,14,45,27.30
2009,08,02,14,46,27.30
2009,08,02,14,47,27.30
2009,08,02,14,48,27.30
2009,08,02,14,49,27.20
2009,08,02,14,50,27.20
2009,08,02,14,51,27.30
2009,08,02,14,52,27.30
2009,08,02,14,53,27.20
2009,08,02,14,54,27.20
2009,08,02,14,55,27.20
2009,08,02,14,56,27.20
2009,08,02,14,57,27.30
2009,08,02,14,58,27.30
2009,08,02,14,59,27.30
2009,08,02,15,00,27.30
2009,08,02,15,01,27.20
2009,08,02,15,02,27.20
2009,08,02,15,03,27.30
2009,08,02,15,04,27.30
2009,08,02,15,05,27.30
2009,08,02,15,06,27.30
2009,08,02,15,07,27.20
2009,08,02,15,08,27.10
2009,08,02,15,09,27.10
2009,08,02,15,10,27.20
2009,08,02,15,11,27.30
2009,08,02,15,12,27.30
2009,08,02,15,13,27.30
2009,08,02,15,14,27.20
2009,08,02,15,15,27.20
2009,08,02,15,16,27.10
2009,08,02,15,17,27.10
2009,08,02,15,18,27.20
2009,08,02,15,19,27.20
2009,08,02,15,20,27.20
2009,08,02,15,21,27.10
2009,08,02,15,22,27.10
2009,08,02,15,23,27.10
2009,08,02,15,24,27.10
2009,08,02,15,25,27.00
2009,08,02,15,26,27.00
2009,08,02,15,27,27.10
2009,08,02,15,28,27.10
2009,08,02,15,29,27.10
2009,08,02,15,30,27.00
2009,08,02,15,31,26.90
2009,08,02,15,32,26.90
2009,08,02,15,33,26.80
2009,08,02,15,34,26.70
2009,08,02,15,35,26.70
2009,08,02,15,36,26.70
2009,08,02,15,37,26.70
2009,08,02,15,38,26.70
2009,08,02,15,39,26.70
2009,08,02,15,40,26.70
2009,08,02,15,41,26.70
2009,08,02,15,42,26.70
2009,08,02,15,43,26.60
2009,08,02,15,44,26.60
2009,08,02,15,45,26.50
2009,08,02,15,46,26.50
2009,08,02,15,47,26.50
2009,08,02,15,48,26.50
2009,08,02,15,49,26.70
2009,08,02,15,50,26.70
2009,08,02,15,51,26.80
2009,08,02,15,52,26.80
2009,08,02,15,53,26.80
2009,08,02,15,54,26.80
2009,08,02,15,55,26.70
2009,08,02,15,56,26.70
2009,08,02,15,57,26.70
2009,08,02,15,58,26.70
2009,08,02,15,59,26.70
2009,08,02,16,00,26.80
2009,08,02,16,01,26.80
2009,08,02,16,02,26.80
2009,08,02,16,03,26.80
2009,08,02,16,04,26.80
2009,08,02,16,05,26.80
2009,08,02,16,06,26.90
2009,08,02,16,07,27.00
2009,08,02,16,08,27.10
2009,08,02,16,09,27.10
2009,08,02,16,10,27.10
2009,08,02,16,11,27.10
2009,08,02,16,12,27.00
2009,08,02,16,13,26.90
2009,08,02,16,14,27.00
2009,08,02,16,15,27.10
2009,08,02,16,16,27.20
2009,08,02,16,17,27.30
2009,08,02,16,18,27.20
2009,08,02,16,19,27.20
2009,08,02,16,20,27.30
2009,08,02,16,21,27.30
2009,08,02,16,22,27.30
2009,08,02,16,23,27.30
2009,08,02,16,24,27.20
2009,08,02,16,25,27.10
2009,08,02,16,26,27.10
2009,08,02,16,27,27.00
2009,08,02,16,28,27.00
2009,08,02,16,29,26.90
2009,08,02,16,30,26.90
2009,08,02,16,31,26.80
2009,08,02,16,32,26.90
2009,08,02,16,33,26.90
2009,08,02,16,34,26.80
2009,08,02,16,35,26.90
2009,08,02,16,36,26.90
2009,08,02,16,37,26.80
2009,08,02,16,38,26.80
2009,08,02,16,39,26.80
2009,08,02,16,40,26.80
2009,08,02,16,41,26.70
2009,08,02,16,42,26.80
2009,08,02,16,43,26.80
2009,08,02,16,44,26.90
2009,08,02,16,45,27.00
2009,08,02,16,46,27.10
2009,08,02,16,47,27.10
2009,08,02,16,48,27.20
2009,08,02,16,49,27.20
2009,08,02,16,50,27.20
2009,08,02,16,51,27.30
2009,08,02,16,52,27.30
2009,08,02,16,53,27.30
2009,08,02,16,54,27.30
2009,08,02,16,55,27.30
2009,08,02,16,56,27.20
2009,08,02,16,57,27.20
2009,08,02,16,58,27.10
2009,08,02,16,59,27.10
2009,08,02,17,00,27.10
2009,08,02,17,01,27.20
2009,08,02,17,02,27.30
2009,08,02,17,03,27.30
2009,08,02,17,04,27.30
2009,08,02,17,05,27.30
2009,08,02,17,06,27.30
2009,08,02,17,07,27.20
2009,08,02,17,08,27.10
2009,08,02,17,09,27.10
2009,08,02,17,10,27.10
2009,08,02,17,11,27.00
2009,08,02,17,12,27.00
2009,08,02,17,13,26.90
2009,08,02,17,14,26.90
2009,08,02,17,15,26.80
2009,08,02,17,16,26.80
2009,08,02,17,17,26.80
2009,08,02,17,18,26.70
2009,08,02,17,19,26.50
2009,08,02,17,20,26.50
2009,08,02,17,21,26.40
2009,08,02,17,22,26.40
2009,08,02,17,23,26.40
2009,08,02,17,24,26.30
2009,08,02,17,25,26.30
2009,08,02,17,26,26.20
2009,08,02,17,27,26.20
2009,08,02,17,28,26.20
2009,08,02,17,29,26.20
2009,08,02,17,30,26.20
2009,08,02,17,31,26.20
2009,08,02,17,32,26.10
2009,08,02,17,33,26.10
2009,08,02,17,34,26.20
2009,08,02,17,35,26.20
2009,08,02,17,36,26.20
2009,08,02,17,37,26.10
2009,08,02,17,38,26.10
2009,08,02,17,39,26.20
2009,08,02,17,40,26.20
2009,08,02,17,41,26.30
2009,08,02,17,42,26.40
2009,08,02,17,43,26.40
2009,08,02,17,44,26.50
2009,08,02,17,45,26.40
2009,08,02,17,46,26.30
2009,08,02,17,47,26.20
2009,08,02,17,48,26.10
2009,08,02,17,49,26.10
2009,08,02,17,50,26.10
2009,08,02,17,51,26.10
2009,08,02,17,52,26.10
2009,08,02,17,53,26.10
2009,08,02,17,54,26.00
2009,08,02,17,55,25.90
2009,08,02,17,56,25.90
2009,08,02,17,57,25.90
2009,08,02,17,58,25.80
2009,08,02,17,59,25.70
2009,08,02,18,00,25.60
2009,08,02,18,01,25.50
2009,08,02,18,02,25.50
2009,08,02,18,03,25.40
2009,08,02,18,04,25.40
2009,08,02,18,05,25.30
2009,08,02,18,06,25.30
2009,08,02,18,07,25.40
2009,08,02,18,08,25.40
2009,08,02,18,09,25.30
2009,08,02,18,10,25.10
2009,08,02,18,11,24.90
2009,08,02,18,12,24.80
2009,08,02,18,13,24.80
2009,08,02,18,14,24.70
2009,08,02,18,15,24.70
2009,08,02,18,16,24.70
2009,08,02,18,17,24.70
2009,08,02,18,18,24.70
2009,08,02,18,19,24.60
2009,08,02,18,20,24.50
2009,08,02,18,21,24.40
2009,08,02,18,22,24.40
2009,08,02,18,23,24.40
2009,08,02,18,24,24.50
2009,08,02,18,25,24.50
2009,08,02,18,26,24.50
2009,08,02,18,27,24.40
2009,08,02,18,28,24.40
2009,08,02,18,29,24.30
2009,08,02,18,30,24.30
2009,08,02,18,31,24.30
2009,08,02,18,32,24.30
2009,08,02,18,33,24.30
2009,08,02,18,34,24.30
2009,08,02,18,35,24.30
2009,08,02,18,36,24.20
2009,08,02,18,37,24.20
2009,08,02,18,38,24.20
2009,08,02,18,39,24.20
2009,08,02,18,40,24.10
2009,08,02,18,41,23.90
2009,08,02,18,42,23.80
2009,08,02,18,43,23.60
2009,08,02,18,44,23.50
2009,08,02,18,45,23.40
2009,08,02,18,46,23.40
2009,08,02,18,47,23.30
2009,08,02,18,48,23.20
2009,08,02,18,49,23.10
2009,08,02,18,50,23.10
2009,08,02,18,51,23.10
2009,08,02,18,52,23.10
2009,08,02,18,53,23.20
2009,08,02,18,54,23.20
2009,08,02,18,55,23.20
2009,08,02,18,56,23.10
2009,08,02,18,57,23.10
2009,08,02,18,58,23.10
2009,08,02,18,59,23.10
2009,08,02,19,00,23.00
2009,08,02,19,01,23.00
2009,08,02,19,02,23.00
2009,08,02,19,03,23.00
2009,08,02,19,04,23.00
2009,08,02,19,05,23.00
2009,08,02,19,06,23.10
2009,08,02,19,07,23.10
2009,08,02,19,08,23.00
2009,08,02,19,09,22.90
2009,08,02,19,10,22.90
2009,08,02,19,11,22.90
2009,08,02,19,12,22.90
2009,08,02,19,13,22.90
2009,08,02,19,14,22.90
2009,08,02,19,15,22.90
2009,08,02,19,16,22.90
2009,08,02,19,17,22.90
2009,08,02,19,18,22.90
2009,08,02,19,19,22.90
2009,08,02,19,20,22.80
2009,08,02,19,21,22.70
2009,08,02,19,22,22.60
2009,08,02,19,23,22.60
2009,08,02,19,24,22.50
2009,08,02,19,25,22.50
2009,08,02,19,26,22.50
2009,08,02,19,27,22.40
2009,08,02,19,28,22.40
2009,08,02,19,29,22.40
2009,08,02,19,30,22.40
2009,08,02,19,31,22.40
2009,08,02,19,32,22.40
2009,08,02,19,33,22.40
2009,08,02,19,34,22.40
2009,08,02,19,35,22.40
2009,08,02,19,36,22.40
2009,08,02,19,37,22.40
2009,08,02,19,38,22.40
2009,08,02,19,39,22.40
2009,08,02,19,40,22.40
2009,08,02,19,41,22.40
2009,08,02,19,42,22.40
2009,08,02,19,43,22.40
2009,08,02,19,44,22.40
2009,08,02,19,45,22.40
